FLOCK 4BE-7

Last updated on Mon Sep 16 2024 00:02:03 GMT+0000 (Coordinated Universal Time)

1 60481U 24149P 24258.90584113 .00018601 00000+0 90898-3 0 9993 2 60481 97.4423 334.0059 0004626 15.9322 344.2056 15.18280852 4417
UTC large
Height (km)
Speed (km/s)
/
Latitude / Longitude
Inclination (degrees)
Orbital Period (minutes)
Azimuth
Elevation
Range (km)
Doppler Factor

Next 0 passes for location: London (51.5072 / 0.1276)

Sorry there are no passes over London.